Hourly Data Report for April 01, 2021

NANAIMO A
BRITISH COLUMBIA
Current Station Operator: NAVCAN

49°03'16.000" N
123°52'12.000" W
28.00 m
1025365
YCD

Download Data

Hourly Data (April 2021)
Hourly Data Report for April 1, 2021
TIME
LST
Temp Definition
°C
Dew Point Definition
°C
Rel Hum Definition
%
Precip. Amount Definition
mm

Wind Dir Definition
10's deg

Wind Spd Definition
km/h
Visibility Definition
km
Stn Press Definition
kPa
Hmdx Definition


Wind Chill Definition


Weather Definition


00:00 3.2 2.1 92 LegendMM 25 3 LegendMM 101.12     LegendNANA
01:00 2.5 1.6 94 LegendMM 23 3 LegendMM 101.07     LegendNANA
02:00 2.0 1.2 95 LegendMM 23 3 LegendMM 100.99     LegendNANA
03:00 1.5 1.0 97 LegendMM 22 2 LegendMM 100.95     LegendNANA
04:00 1.3 0.6 95 LegendMM 16 4 LegendMM 100.90     LegendNANA
05:00 1.6 0.7 94 LegendMM 15 5 LegendMM 100.88     LegendNANA
06:00 2.0 1.5 97 LegendMM 35 3 LegendMM 100.91     LegendNANA
07:00 2.6 2.0 96 LegendMM 32 3 LegendMM 100.91     LegendNANA
08:00 3.9 2.9 93 LegendMM 21 6 LegendMM 100.93     LegendNANA
09:00 5.5 3.8 89 LegendMM 36 11 LegendMM 100.98     LegendNANA
10:00 7.1 3.1 75 LegendMM 15 1 LegendMM 101.00     LegendNANA
11:00 9.2 3.0 65 LegendMM 10 1 LegendMM 101.04     LegendNANA
12:00 10.8 2.2 55 LegendMM 18 6 LegendMM 101.03     LegendNANA
13:00 12.1 2.4 51 LegendMM 7 8 LegendMM 101.00     LegendNANA
14:00 13.5 0.6 41 LegendMM 10 13 LegendMM 100.97     LegendNANA
15:00 12.7 1.6 47 LegendMM 9 11 LegendMM 100.96     LegendNANA
16:00 12.9 2.3 48 LegendMM 6 3 LegendMM 100.94     LegendNANA
17:00 13.2 1.9 46 LegendMM 25 12 LegendMM 100.91     LegendNANA
18:00 11.6 1.7 50 LegendMM 24 11 LegendMM 100.92     LegendNANA
19:00 9.5 2.1 60 LegendMM 27 8 LegendMM 100.94     LegendNANA
20:00 8.0 2.2 67 LegendMM 22 6 LegendMM 100.98     LegendNANA
21:00 6.8 2.3 73 LegendMM 24 9 LegendMM 101.05     LegendNANA
22:00 4.3 1.7 83 LegendMM 21 4 LegendMM 101.06     LegendNANA
23:00 2.7 1.2 90 LegendMM 15 1 LegendMM 101.06     LegendNANA

Notes on Data Quality.

Legend

  • E = Estimated
  • M = Missing
  • NA = Not Available*
  • [empty] = Indicates an unobserved value
Date modified: